| time (UTC) | temp C | wind direction | speed KPH | gust KPH | rain 1hr cm | rain 24hr cm | rain mn cm | humidity % | barometer mb |
| 20260506033011 | 12 | 116 | 1.6 | 6.4 | 0.00 | 0.00 | 0.00 | 87 | 1018.0 |
| 20260506031511 | 12 | 127 | 1.6 | 4.8 | 0.00 | 0.00 | 0.00 | 87 | 1018.1 |
| 20260506030008 | 12 | 107 | 3.2 | 6.4 | 0.00 | 0.00 | 0.00 | 87 | 1017.8 |
| 20260506024507 | 12 | 157 | 0.0 | 6.4 | 0.00 | 0.00 | 0.00 | 87 | 1017.6 |
| 20260506023004 | 12 | 129 | 3.2 | 8.0 | 0.00 | 0.00 | 0.00 | 87 | 1017.5 |
| 20260506021503 | 12 | 140 | 1.6 | 9.7 | 0.00 | 0.00 | 0.00 | 87 | 1017.4 |
| 20260506020003 | 12 | 42 | 1.6 | 9.7 | 0.00 | 0.00 | 0.00 | 87 | 1017.4 |
| 20260506014504 | 12 | 72 | 3.2 | 9.7 | 0.00 | 0.00 | 0.00 | 86 | 1017.3 |
| 20260506013002 | 12 | 77 | 3.2 | 9.7 | 0.00 | 0.00 | 0.00 | 86 | 1017.3 |
| 20260506011507 | 13 | 86 | 3.2 | 11.3 | 0.00 | 0.00 | 0.00 | 86 | 1017.2 |
| 20260506010001 | 13 | 123 | 3.2 | 9.7 | 0.00 | 0.00 | 0.00 | 86 | 1017.1 |
| 20260506004503 | 13 | 143 | 3.2 | 8.0 | 0.00 | 0.00 | 0.00 | 85 | 1017.1 |
| 20260506003128 | 13 | 108 | 3.2 | 11.3 | 0.00 | 0.00 | 0.00 | 85 | 1017.0 |
| 20260506001609 | 13 | 125 | 3.2 | 9.7 | 0.00 | 0.00 | 0.00 | 85 | 1017.1 |
| 20260506000059 | 13 | 127 | 4.8 | 11.3 | 0.00 | 0.00 | 0.00 | 85 | 1017.2 |
| 20260505234559 | 13 | 122 | 4.8 | 14.5 | 0.00 | 0.00 | 0.00 | 85 | 1017.2 |
| 20260505233111 | 13 | 128 | 4.8 | 14.5 | 0.00 | 0.00 | 0.00 | 85 | 1017.3 |
| 20260505231557 | 14 | 144 | 6.4 | 12.9 | 0.00 | 0.00 | 0.00 | 84 | 1017.4 |
| 20260505230059 | 14 | 127 | 4.8 | 12.9 | 0.00 | 0.00 | 0.00 | 84 | 1017.4 |
| 20260505224556 | 14 | 127 | 6.4 | 12.9 | 0.00 | 0.00 | 0.00 | 84 | 1017.3 |
| 20260505223056 | 14 | 134 | 6.4 | 16.1 | 0.00 | 0.00 | 0.00 | 82 | 1017.3 |
| 20260505221555 | 15 | 105 | 4.8 | 14.5 | 0.00 | 0.00 | 0.00 | 83 | 1017.4 |
| 20260505220053 | 15 | 94 | 6.4 | 14.5 | 0.00 | 0.00 | 0.00 | 82 | 1017.4 |
| 20260505214609 | 15 | 127 | 6.4 | 17.7 | 0.00 | 0.00 | 0.00 | 81 | 1017.2 |
| 20260505213052 | 15 | 96 | 8.0 | 14.5 | 0.00 | 0.00 | 0.00 | 79 | 1017.2 |
| 20260505211550 | 16 | 162 | 3.2 | 12.9 | 0.00 | 0.00 | 0.00 | 79 | 1017.2 |
| 20260505210049 | 15 | 158 | 3.2 | 12.9 | 0.00 | 0.00 | 0.00 | 78 | 1017.1 |
| 20260505204549 | 15 | 110 | 4.8 | 17.7 | 0.00 | 0.00 | 0.00 | 78 | 1017.0 |
| 20260505203048 | 16 | 165 | 4.8 | 16.1 | 0.00 | 0.00 | 0.00 | 77 | 1017.1 |
| 20260505201552 | 16 | 144 | 4.8 | 16.1 | 0.00 | 0.00 | 0.00 | 76 | 1017.2 |
| 20260505200047 | 16 | 45 | 4.8 | 12.9 | 0.00 | 0.00 | 0.00 | 76 | 1017.3 |
| 20260505194546 | 16 | 129 | 3.2 | 9.7 | 0.00 | 0.00 | 0.00 | 76 | 1017.2 |
| 20260505193046 | 16 | 113 | 3.2 | 9.7 | 0.00 | 0.00 | 0.00 | 75 | 1017.2 |
| 20260505191555 | 16 | 105 | 3.2 | 8.0 | 0.00 | 0.00 | 0.00 | 76 | 1017.3 |
| 20260505190041 | 15 | 99 | 1.6 | 11.3 | 0.00 | 0.00 | 0.00 | 77 | 1017.2 |
| 20260505184544 | 15 | 87 | 3.2 | 8.0 | 0.00 | 0.00 | 0.00 | 78 | 1017.2 |
| 20260505183059 | 15 | 127 | 3.2 | 9.7 | 0.00 | 0.00 | 0.00 | 79 | 1017.2 |
| 20260505181537 | 15 | 61 | 3.2 | 9.7 | 0.00 | 0.00 | 0.00 | 79 | 1017.2 |
| 20260505180037 | 15 | 127 | 1.6 | 9.7 | 0.00 | 0.00 | 0.00 | 80 | 1017.2 |
| 20260505174534 | 14 | 143 | 3.2 | 9.7 | 0.00 | 0.00 | 0.00 | 79 | 1017.1 |
| 20260505173041 | 14 | 122 | 4.8 | 9.7 | 0.00 | 0.00 | 0.00 | 79 | 1016.9 |
| 20260505171542 | 14 | 107 | 4.8 | 9.7 | 0.00 | 0.00 | 0.00 | 79 | 1016.8 |
| 20260505170031 | 15 | 61 | 1.6 | 6.4 | 0.00 | 0.00 | 0.00 | 79 | 1016.8 |
| 20260505164529 | 14 | 131 | 3.2 | 6.4 | 0.00 | 0.00 | 0.00 | 78 | 1016.8 |
| 20260505163027 | 14 | 116 | 1.6 | 4.8 | 0.00 | 0.00 | 0.00 | 79 | 1016.7 |
| 20260505161526 | 14 | 143 | 0.0 | 4.8 | 0.00 | 0.00 | 0.00 | 80 | 1016.7 |
| 20260505153017 | 12 | 302 | 0.0 | 0.0 | 0.00 | 0.00 | 0.00 | 88 | 1016.6 |
| 20260505151520 | 12 | 266 | 0.0 | 0.0 | 0.00 | 0.00 | 0.00 | 89 | 1016.4 |
| 20260505124511 | 11 | 266 | 0.0 | 0.0 | 0.00 | 0.00 | 0.00 | 90 | 1016.0 |
| 20260505123010 | 11 | 266 | 0.0 | 0.0 | 0.00 | 0.00 | 0.00 | 90 | 1015.8 |
| 20260505121510 | 11 | 266 | 0.0 | 0.0 | 0.00 | 0.00 | 0.00 | 90 | 1015.7 |
| 20260505120028 | 11 | 266 | 0.0 | 0.0 | 0.00 | 0.00 | 0.00 | 90 | 1015.7 |
| 20260505114510 | 11 | 266 | 0.0 | 0.0 | 0.00 | 0.00 | 0.00 | 90 | 1015.6 |
| 20260505113007 | 11 | 266 | 0.0 | 0.0 | 0.00 | 0.00 | 0.00 | 90 | 1015.5 |
| 20260505111506 | 11 | 266 | 0.0 | 0.0 | 0.00 | 0.00 | 0.00 | 90 | 1015.6 |
| 20260505101603 | 12 | 266 | 0.0 | 0.0 | 0.00 | 0.00 | 0.00 | 90 | 1015.5 |
| 20260505100059 | 12 | 266 | 0.0 | 0.0 | 0.00 | 0.00 | 0.00 | 90 | 1015.6 |
| 20260505094558 | 12 | 266 | 0.0 | 0.0 | 0.00 | 0.00 | 0.00 | 90 | 1015.7 |
| 20260505093058 | 12 | 266 | 0.0 | 0.0 | 0.00 | 0.00 | 0.00 | 89 | 1015.9 |
| 20260505091601 | 12 | 266 | 0.0 | 0.0 | 0.00 | 0.00 | 0.00 | 89 | 1015.9 |
| 20260505090053 | 12 | 266 | 0.0 | 0.0 | 0.00 | 0.00 | 0.00 | 89 | 1016.1 |
| 20260505084551 | 12 | 266 | 0.0 | 1.6 | 0.00 | 0.00 | 0.00 | 89 | 1016.3 |
| 20260505083050 | 12 | 266 | 0.0 | 1.6 | 0.00 | 0.00 | 0.00 | 89 | 1016.3 |
| 20260505081548 | 12 | 266 | 0.0 | 1.6 | 0.00 | 0.00 | 0.00 | 89 | 1016.3 |
| 20260505080046 | 12 | 266 | 0.0 | 1.6 | 0.00 | 0.00 | 0.00 | 89 | 1016.4 |
| 20260505074549 | 12 | 266 | 0.0 | 1.6 | 0.00 | 0.00 | 0.00 | 89 | 1016.4 |
| 20260505073101 | 12 | 266 | 0.0 | 1.6 | 0.00 | 0.00 | 0.00 | 88 | 1016.4 |
| 20260505071541 | 12 | 266 | 0.0 | 1.6 | 0.00 | 0.00 | 0.00 | 88 | 1016.3 |
| 20260505070041 | 12 | 266 | 0.0 | 0.0 | 0.00 | 0.00 | 0.00 | 88 | 1016.3 |
| 20260505064543 | 12 | 266 | 0.0 | 0.0 | 0.00 | 0.00 | 0.00 | 88 | 1016.4 |
| 20260505063040 | 12 | 266 | 0.0 | 1.6 | 0.00 | 0.00 | 0.00 | 88 | 1016.2 |
| 20260505061549 | 12 | 266 | 0.0 | 0.0 | 0.00 | 0.00 | 0.00 | 88 | 1016.4 |
| 20260505060039 | 12 | 266 | 0.0 | 1.6 | 0.00 | 0.00 | 0.00 | 87 | 1016.4 |
| 20260505054558 | 12 | 266 | 0.0 | 1.6 | 0.00 | 0.00 | 0.00 | 87 | 1016.4 |
| 20260505053041 | 12 | 266 | 0.0 | 1.6 | 0.00 | 0.00 | 0.00 | 87 | 1016.5 |
| 20260505051537 | 13 | 266 | 0.0 | 1.6 | 0.00 | 0.00 | 0.00 | 87 | 1016.5 |
| 20260505041535 | 13 | 266 | 0.0 | 0.0 | 0.00 | 0.00 | 0.00 | 86 | 1016.3 |
| 20260505040035 | 13 | 266 | 0.0 | 0.0 | 0.00 | 0.00 | 0.00 | 86 | 1016.1 |
| 20260505034534 | 13 | 265 | 0.0 | 1.6 | 0.00 | 0.03 | 0.00 | 85 | 1015.8 |